[[{"header":{"parameterUnit":"m.s-1","parameterCategory":1,"la1":30.2991,"la2":30.254,"lo1":-89.0895,"lo2":-89.0444,"dy":0.0017,"dx":0.0017,"nx":28,"ny":28,"refTime":"2025-01-05T09:00:00:Z","depth":0,"parameterNumber":2,"parameterNumberName":"U-component_of_WINDS"},"data":[0,0,0,0,0,0,0,0,0,0,0,0,0,0,0,0,0,0,0,0,0,0,0,0,0,0,0,0,0,0,0,0,0,0,0,0,0,0,0,0,0,0,0,0,0,0,0,0,0,0,0,0,0,0,0,0,0,0,2.8636,2.8636,0,2.8559,2.8559,2.8558,2.8477,2.8475,2.8474,2.8473,2.8396,2.8395,2.8394,0,0,0,0,0,0,0,0,0,0,0,0,0,2.8715,2.8714,2.8636,2.8636,2.8635,2.856,2.8558,2.8557,2.8477,2.8475,2.8474,2.8473,2.8396,2.8395,2.8394,0,0,0,0,0,0,0,0,0,0,0,0,0,2.8664,2.8714,2.8637,2.8585,2.858,2.856,2.8558,2.8557,2.8477,2.8475,2.8474,2.8472,2.8396,2.8395,2.8393,2.8418,0,0,2.8389,2.8388,0,0,0,0,0,0,0,0,2.8667,2.8661,2.8594,2.8589,2.8583,2.8526,2.8558,2.8511,2.8478,2.8516,2.8473,2.8471,2.844,2.8435,2.8424,2.8414,2.8411,2.8389,2.8388,2.8387,2.8387,0,0,0,0,0,0,0,2.867,2.8664,2.8606,2.8593,2.8586,2.8566,2.8557,2.8548,2.8489,2.8513,2.8507,2.8499,2.8437,2.8426,2.8422,2.841,2.8389,2.8387,2.8386,2.8386,2.8416,2.8418,0,0,0,0,0,0,2.8682,2.8667,2.8608,2.8604,2.8621,2.8566,2.8556,2.8546,2.8489,2.8478,2.85,2.8495,2.843,2.8424,2.8419,2.8444,2.8387,2.8386,2.8385,2.8414,2.8417,2.8418,0,0,0,0,0,0,2.8684,2.8677,2.8611,2.8634,2.8624,2.8567,2.8556,2.8545,2.8534,2.8479,2.8468,2.85,2.8428,2.8421,2.8419,2.844,2.8385,2.8384,2.8412,2.8415,2.8418,2.8494,0,0,0,0,0,0,2.8686,2.8678,2.8687,2.8635,2.8623,2.8612,2.8557,2.8545,2.8532,2.8524,2.8476,2.8466,2.8426,2.8421,2.8417,2.8437,2.8382,2.841,2.8414,2.8417,2.8489,2.8499,2.8507,0,0,0,0,0,2.8689,2.8712,2.8688,2.8681,2.8632,2.8614,2.8607,2.856,2.8534,2.8542,2.8507,2.8468,2.8439,2.8422,2.8416,2.8436,2.8409,2.8413,2.8416,2.8485,2.8497,2.8507,0,0,0,0,0,0,2.8768,2.8704,2.8676,2.8682,2.8654,2.86,2.8609,2.8574,2.8553,2.8547,2.849,2.848,2.8484,2.846,2.8442,2.8457,2.8418,2.8421,2.8473,2.8483,2.8492,2.8497,2.8381,0,0,0,0,0,2.8786,2.8776,2.872,2.8731,2.8718,2.8667,2.8657,2.8623,2.8591,2.8579,2.8543,2.8515,2.8499,2.849,2.8472,2.8486,2.8474,2.8497,2.8506,2.8513,2.8516,2.8522,2.8531,2.8431,2.8431,2.8431,0,0,2.8823,2.8787,2.8784,2.8746,2.872,2.8711,2.8657,2.865,2.8643,2.8578,2.8573,2.8547,2.8511,2.8517,2.8517,2.8496,2.8541,2.8518,2.8525,2.8523,2.8527,2.8536,2.8544,2.8434,2.8433,2.8433,0,0,2.8886,2.8858,2.8863,2.8839,2.88,2.8765,2.8767,2.8718,2.8698,2.8692,2.8644,2.8635,2.8609,2.8585,2.857,2.8625,2.8589,2.8621,2.8667,2.8673,2.8681,2.8688,2.8707,2.8715,2.8625,2.8625,2.8625,0,2.8937,2.8921,2.8871,2.8867,2.8852,2.8793,2.8798,2.8777,2.8735,2.8726,2.8703,2.867,2.8641,2.8641,2.8654,2.8644,2.8644,2.8626,2.8684,2.869,2.8696,2.8713,2.8721,2.8629,2.8628,2.8628,2.8628,0,2.8986,2.8976,2.8985,2.8946,2.8932,2.8933,2.8883,2.8875,2.8843,2.8811,2.8806,2.8771,2.8745,2.8742,2.8711,2.8737,2.8726,2.8695,2.8654,2.871,2.8726,2.8732,2.8635,2.8633,2.8632,2.8631,0,0,2.9095,2.9028,2.9032,2.9014,2.8968,2.8959,2.8958,2.8932,2.8927,2.89,2.8897,2.8877,2.8848,2.8831,2.8796,2.8802,2.8847,2.8769,2.8768,2.8785,2.8874,2.8898,2.8906,2.8823,2.8824,2.8825,2.8877,0,2.9149,2.9142,2.9097,2.9104,2.9094,2.9039,2.9037,2.9009,2.898,2.8967,2.8935,2.8921,2.8884,2.8873,2.8876,2.8841,2.8864,2.8837,2.882,2.882,2.883,2.8915,2.8939,2.899,2.8883,2.8884,2.8885,0,2.9211,2.9188,2.9194,2.9148,2.9142,2.9142,2.9115,2.9104,2.9071,2.9049,2.9031,2.8992,2.8988,2.8951,2.8944,2.8926,2.8917,2.8899,2.89,2.8896,2.8855,2.8913,2.9005,2.9012,2.8894,2.8893,2.8893,0,2.929,2.9261,2.926,2.9246,2.9193,2.9194,2.9171,2.9137,2.9125,2.9101,2.9093,2.907,2.9057,2.9041,2.8997,2.8974,2.8995,2.8955,2.8977,2.8978,2.8983,2.8983,2.9075,2.8979,2.8979,2.8979,2.8978,0,2.9355,2.936,2.9295,2.9294,2.9299,2.9248,2.9254,2.9226,2.9196,2.919,2.9141,2.9136,2.9079,2.9068,2.9034,2.9033,2.9028,2.901,2.9001,2.9014,2.9017,2.9007,2.9002,2.898,2.898,2.898,2.8979,0,2.9443,2.9399,2.9395,2.9345,2.9332,2.9338,2.9295,2.9293,2.9261,2.9253,2.9249,2.9198,2.9182,2.9138,2.911,2.9088,2.9097,2.908,2.9108,2.9102,2.9127,2.9125,2.9214,2.9223,2.9123,2.9124,2.9125,0,2.9487,2.949,2.944,2.9432,2.9412,2.94,2.9387,2.9338,2.9326,2.929,2.9292,2.9272,2.9254,2.9231,2.9192,2.9172,2.9153,2.9186,2.915,2.9163,2.9153,2.9153,2.9153,2.9194,2.9195,2.9196,2.9197,0,2.9569,2.9547,2.9531,2.9507,2.9494,2.9472,2.9449,2.9445,2.9389,2.9379,2.9363,2.9348,2.9321,2.9302,2.9275,2.9252,2.9216,2.9209,2.9213,2.9226,2.9242,2.9233,2.9129,2.9207,2.9206,2.9206,2.9205,2.9205,2.9635,2.9636,2.9601,2.9584,2.9561,2.954,2.9536,2.9503,2.9489,2.9462,2.9434,2.942,2.9388,2.9348,2.9328,2.9317,2.9297,2.9303,2.9304,2.9307,2.9313,2.9245,2.9312,2.9311,2.9311,2.9311,2.9311,0,2.9715,2.969,2.9675,2.9644,2.9631,2.9598,2.957,2.9561,2.955,2.9523,2.9506,2.9487,2.9469,2.9429,2.9407,2.9406,2.9388,2.9402,2.9401,2.9396,2.9331,2.933,2.9416,2.9416,2.9416,2.9416,2.9416,2.9416,2.9754,2.9753,2.9727,2.9714,2.9689,2.9675,2.9662,2.9643,2.9621,2.9602,2.9587,2.9561,2.9528,2.9504,2.9486,2.9474,2.9468,2.9487,2.9471,2.9411,2.9401,2.9391,2.9389,2.9486,2.9487,2.9536,2.9536,2.9537]},{"header":{"parameterUnit":"m.s-1","parameterCategory":1,"la1":30.2991,"la2":30.254,"lo1":-89.0895,"lo2":-89.0444,"dy":0.0017,"dx":0.0017,"nx":28,"ny":28,"refTime":"2025-01-05T09:00:00:Z","depth":0,"parameterNumber":3,"parameterNumberName":"V-component_of_WINDS"},"data":[0,0,0,0,0,0,0,0,0,0,0,0,0,0,0,0,0,0,0,0,0,0,0,0,0,0,0,0,0,0,0,0,0,0,0,0,0,0,0,0,0,0,0,0,0,0,0,0,0,0,0,0,0,0,0,0,0,0,6.8713,6.8716,0,6.8948,6.8951,6.8954,6.8967,6.8964,6.8961,6.8959,6.92,6.9209,6.9218,0,0,0,0,0,0,0,0,0,0,0,0,0,6.8277,6.8284,6.8713,6.8716,6.8719,6.8948,6.8951,6.8954,6.8967,6.8964,6.8961,6.8958,6.9197,6.9208,6.9218,0,0,0,0,0,0,0,0,0,0,0,0,0,6.8484,6.8287,6.8713,6.8753,6.8759,6.8947,6.8951,6.8955,6.8968,6.8964,6.896,6.8956,6.9194,6.9207,6.922,6.9384,0,0,6.9261,6.9267,0,0,0,0,0,0,0,0,6.8473,6.85,6.8744,6.8751,6.8758,6.8924,6.8886,6.9099,6.8969,6.8889,6.8959,6.8954,6.9112,6.9132,6.9185,6.9395,6.9406,6.9262,6.927,6.9276,6.928,0,0,0,0,0,0,0,6.8458,6.849,6.8806,6.8748,6.8756,6.876,6.8785,6.8926,6.902,6.8895,6.8897,6.8925,6.9114,6.9172,6.919,6.9409,6.9262,6.9274,6.9282,6.9287,6.9769,6.9773,0,0,0,0,0,0,6.8436,6.8478,6.8799,6.8813,6.8602,6.8771,6.8799,6.8875,6.9019,6.9037,6.8928,6.8924,6.9151,6.9175,6.9199,6.9403,6.9276,6.9288,6.9296,6.9764,6.977,6.9775,0,0,0,0,0,0,6.8426,6.8464,6.8789,6.8646,6.8688,6.8783,6.8868,6.8882,6.8939,6.9043,6.906,6.8969,6.9148,6.918,6.9338,6.9411,6.9295,6.9307,6.9759,6.9766,6.9773,6.981,0,0,0,0,0,0,6.8414,6.8461,6.8524,6.8648,6.8696,6.8925,6.8872,6.8889,6.8962,6.8959,6.9086,6.9103,6.9148,6.9318,6.9352,6.9428,6.9317,6.9753,6.9762,6.977,6.9803,6.9818,6.983,0,0,0,0,0,6.8398,6.8524,6.8527,6.8565,6.8776,6.8929,6.8956,6.9005,6.8967,6.9032,6.9099,6.9099,6.9397,6.9334,6.9372,6.9453,6.9748,6.9759,6.977,6.9797,6.9815,6.983,0,0,0,0,0,0,6.8406,6.8541,6.8546,6.8716,6.8811,6.8931,6.9014,6.9022,6.913,6.9123,6.9179,6.9207,6.9365,6.9424,6.9352,6.9621,6.9569,6.9587,6.9576,6.9594,6.9608,6.9591,6.9328,0,0,0,0,0,6.8428,6.854,6.8652,6.8791,6.8839,6.8918,6.8986,6.9016,6.9116,6.9157,6.9235,6.9333,6.945,6.9525,6.9637,6.9811,6.984,6.9885,6.9899,6.991,6.9926,7.0025,7.0047,6.981,6.981,6.981,0,0,6.8474,6.8561,6.8629,6.8795,6.8873,6.8989,6.8952,6.9075,6.9163,6.9175,6.9331,6.9392,6.9505,6.9673,6.975,6.9727,6.9998,6.9923,6.9931,6.9942,7.0038,7.0061,7.008,6.9817,6.9816,6.9815,0,0,6.8617,6.8694,6.882,6.8898,6.9015,6.9067,6.9097,6.9217,6.9258,6.9415,6.9428,6.9532,6.9729,6.9811,6.9878,7.0053,7.0058,7.0088,7.016,7.0256,7.0275,7.0292,7.0357,7.038,7.0103,7.0103,7.0103,0,6.866,6.8835,6.8883,6.9008,6.9082,6.9099,6.9227,6.9301,6.9449,6.95,6.9471,6.9722,6.9799,6.9987,7.003,7.0082,7.012,7.0075,7.0268,7.0286,7.0302,7.0365,7.0389,7.0106,7.0106,7.0106,7.0105,0,6.8882,6.9004,6.9091,6.9235,6.9318,6.9444,6.9512,6.9591,6.9613,6.9668,6.9828,6.9921,7.0054,7.01,7.0122,7.0292,7.0275,7.0256,7.0206,7.0327,7.0387,7.0412,7.0111,7.011,7.0109,7.0108,0,0,6.9039,6.9208,6.924,6.9306,6.9437,6.9532,6.9659,6.9789,6.9857,6.9958,7.0067,7.0235,7.022,7.0296,7.0327,7.0411,7.0547,7.0383,7.0387,7.0413,7.0744,7.0758,7.0785,7.055,7.0555,7.0559,7.0735,0,6.9199,6.9426,6.9474,6.967,6.9784,6.9802,6.9913,7.0006,7.0061,7.0166,7.0226,7.0346,7.0315,7.0362,7.0445,7.0513,7.0615,7.0501,7.0655,7.0659,7.0629,7.0816,7.0832,7.0994,7.0758,7.0762,7.0765,0,6.9416,6.9524,6.9732,6.9851,6.99,6.9999,7.0123,7.0223,7.0329,7.0363,7.0449,7.0472,7.0606,7.0547,7.0733,7.0654,7.072,7.0763,7.077,7.0789,7.0722,7.0843,7.1046,7.1072,7.0802,7.0799,7.0797,0,6.9513,6.971,6.9861,6.9916,7.0057,7.0127,7.0189,7.0291,7.0366,7.0475,7.0525,7.0647,7.0714,7.0809,7.0864,7.0816,7.1048,7.0992,7.1082,7.1081,7.1132,7.1128,7.1352,7.1169,7.1169,7.1168,7.1168,0,6.9689,6.9816,6.9907,7.0,7.0143,7.0197,7.0338,7.0399,7.049,7.0596,7.0618,7.0717,7.0783,7.0892,7.0936,7.1085,7.1115,7.1147,7.1158,7.1147,7.1144,7.1193,7.1184,7.1175,7.1173,7.1172,7.1171,0,6.9822,6.9887,7.0053,7.0173,7.0206,7.0307,7.041,7.0502,7.0557,7.0691,7.0725,7.0812,7.0941,7.1006,7.1166,7.1196,7.1366,7.1367,7.133,7.1335,7.1422,7.1414,7.1687,7.1727,7.1515,7.1516,7.1518,0,6.9931,7.003,7.0161,7.0233,7.0297,7.0414,7.0492,7.0548,7.0628,7.0757,7.0834,7.0964,7.1072,7.1277,7.1355,7.1479,7.1486,7.1573,7.1505,7.1491,7.1491,7.1486,7.1497,7.1586,7.1588,7.159,7.1591,0,7.0119,7.0147,7.0258,7.0382,7.0474,7.0574,7.0672,7.073,7.0803,7.0892,7.1025,7.1108,7.1273,7.1403,7.1532,7.1596,7.1607,7.1612,7.164,7.1631,7.1607,7.1624,7.1367,7.1606,7.1604,7.1603,7.1603,7.1602,7.0246,7.0335,7.0442,7.0566,7.0646,7.0738,7.0831,7.0897,7.1009,7.1148,7.1174,7.1316,7.1421,7.1595,7.1664,7.1776,7.1757,7.1796,7.1807,7.1817,7.1823,7.1586,7.1799,7.1799,7.1799,7.1798,7.1798,0,7.0437,7.0507,7.062,7.0758,7.0856,7.0856,7.0966,7.1048,7.1172,7.1269,7.1375,7.1529,7.1655,7.1743,7.1872,7.1945,7.1953,7.1977,7.1974,7.1989,7.1831,7.1795,7.1968,7.1968,7.1968,7.1968,7.1968,7.1968,7.0549,7.0701,7.0742,7.0935,7.1004,7.1143,7.1206,7.1291,7.1369,7.154,7.1645,7.1701,7.1796,7.1932,7.2048,7.2071,7.2119,7.2143,7.2166,7.2017,7.1999,7.1983,7.195,7.2152,7.2152,7.2315,7.2317,7.2318]}]]